Location: Saratoga Springs
(43.0831°N, 73.7850°W)
Time: 23:23:54
(UTC-04:00)

Courier 1B - Visible Passes

Search period start: 21 April 2024 00:00
Search period end: 01 May 2024 00:00
Orbit: 962 x 1208 km, 28.3° (Epoch: 21 April)

Date Brightness Start Highest point End Pass type
(mag) Time Alt. Az. Time Alt. Az. Time Alt. Az.
21 Apr 9.2 03:15:08 20° SSE 03:15:08 20° SSE 03:18:27 10° SE visible
21 Apr 8.9 05:02:01 13° SW 05:06:22 23° S 05:11:28 10° SE visible
22 Apr 9.9 02:24:31 10° SE 02:24:31 10° SE 02:24:40 10° ESE visible
22 Apr 8.8 04:11:24 23° SSW 04:12:45 24° S 04:18:06 10° SE visible
23 Apr 9.0 03:20:49 22° SSE 03:20:49 22° SSE 03:24:37 10° SE visible
23 Apr 9.0 05:07:42 11° SW 05:12:12 20° SSW 05:16:57 10° SSE visible
24 Apr 9.7 02:30:18 12° SE 02:30:18 12° SE 02:31:01 10° SE visible
24 Apr 8.9 04:17:11 21° SSW 04:18:35 22° S 04:23:48 10° SE visible
25 Apr 9.0 03:26:44 22° SSE 03:26:44 22° SSE 03:30:29 10° SE visible
25 Apr 9.2 05:13:58 10° SW 05:17:56 15° SSW 05:21:47 10° SSE visible
26 Apr 9.7 02:36:23 12° SE 02:36:23 12° SE 02:37:02 10° SE visible
26 Apr 9.0 04:23:17 18° SSW 04:24:21 19° SSW 04:29:03 10° SSE visible
27 Apr 9.2 03:33:03 19° SSE 03:33:03 19° SSE 03:36:00 10° SE visible
27 Apr 9.5 05:22:35 10° SW 05:23:36 10° SSW 05:24:37 10° SSW visible
28 Apr 9.3 04:29:53 14° SSW 04:30:03 14° SSW 04:33:29 10° S visible
29 Apr 9.6 03:39:55 13° SSE 03:39:55 13° SSE 03:40:58 10° SSE visible
30 Apr 9.4 21:57:35 10° SSW 22:00:21 16° S 22:00:21 16° S visible
